When you browse on this site, cookies collect data to enhance your experience and personalize the content and advertising you see.
Visit our Privacy Policy to learn more. By continuing to use the site, you agree to this use of cookies and data.
  • In United Kingdom
  • List of Countries
  • For 7 days
  • Water Temperature
  • Weather Map
  • Weather Widgets
  • user-avatar
    Login

    Hourly Weather Saint George's

    Today, 26 August, Monday

    Time Temperature Precipitation Wind Pressure Humidity
    00:00 +29°C° 0 mm 6 mps 752 mmHg 79%
    01:00 +29°C° 0 mm 6 mps 752 mmHg 79%
    02:00 +29°C° 0 mm 6 mps 752 mmHg 80%
    03:00 +29°C° 0 mm 6 mps 752 mmHg 80%
    04:00 +28°C° 0 mm 6 mps 752 mmHg 81%
    05:00 +28°C° 0 mm 6 mps 752 mmHg 82%
    06:00 +28°C° 0.1 mm 6 mps 752 mmHg 80%
    07:00 +29°C° 0.1 mm 5 mps 752 mmHg 79%
    08:00 +29°C° 0.1 mm 5 mps 753 mmHg 78%
    09:00 +30°C° 0 mm 5 mps 753 mmHg 75%
    10:00 +30°C° 0 mm 5 mps 753 mmHg 72%
    11:00 +32°C° 0 mm 5 mps 753 mmHg 68%
    12:00 +32°C° 0 mm 5 mps 752 mmHg 68%
    13:00 +32°C° 0 mm 5 mps 752 mmHg 69%
    14:00 +32°C° 0 mm 6 mps 751 mmHg 69%
    15:00 +32°C° 0.2 mm 5 mps 751 mmHg 70%
    16:00 +30°C° 0.2 mm 5 mps 751 mmHg 71%
    17:00 +30°C° 0.2 mm 5 mps 750 mmHg 72%
    18:00 +29°C° 0.1 mm 5 mps 750 mmHg 75%
    19:00 +29°C° 0.1 mm 5 mps 751 mmHg 78%
    20:00 +28°C° 0.1 mm 5 mps 751 mmHg 81%
    21:00 +28°C° 0.1 mm 5 mps 751 mmHg 82%
    22:00 +28°C° 0.1 mm 5 mps 751 mmHg 82%
    23:00 +28°C° 0.1 mm 4 mps 751 mmHg 82%

    Tomorrow, 27 August, Tuesday

    Time Temperature Precipitation Wind Pressure Humidity
    00:00 +28°C° 0.1 mm 4 mps 751 mmHg 82%
    01:00 +28°C° 0.1 mm 4 mps 750 mmHg 83%
    02:00 +28°C° 0.1 mm 3 mps 750 mmHg 83%
    03:00 +28°C° 0.2 mm 3 mps 750 mmHg 83%
    04:00 +28°C° 0.2 mm 3 mps 750 mmHg 83%
    05:00 +28°C° 0.2 mm 3 mps 750 mmHg 84%
    06:00 +28°C° 0.6 mm 3 mps 751 mmHg 83%
    07:00 +28°C° 0.6 mm 4 mps 751 mmHg 83%
    08:00 +29°C° 0.6 mm 4 mps 752 mmHg 83%
    09:00 +29°C° 0.8 mm 4 mps 752 mmHg 83%
    10:00 +29°C° 0.8 mm 5 mps 752 mmHg 83%
    11:00 +29°C° 0.8 mm 5 mps 752 mmHg 83%
    12:00 +29°C° 0.3 mm 5 mps 752 mmHg 81%
    13:00 +29°C° 0.3 mm 5 mps 751 mmHg 80%
    14:00 +29°C° 0.3 mm 4 mps 751 mmHg 78%
    15:00 +30°C° 0 mm 4 mps 750 mmHg 77%
    16:00 +30°C° 0 mm 4 mps 750 mmHg 76%
    17:00 +30°C° 0 mm 4 mps 750 mmHg 74%
    18:00 +29°C° 0.1 mm 5 mps 751 mmHg 76%
    19:00 +29°C° 0.1 mm 6 mps 751 mmHg 78%
    20:00 +29°C° 0.1 mm 6 mps 751 mmHg 79%
    21:00 +29°C° 0 mm 7 mps 752 mmHg 79%
    22:00 +29°C° 0 mm 7 mps 752 mmHg 79%
    23:00 +29°C° 0 mm 8 mps 752 mmHg 79%

    Day after tomorrow, 28 August, Wednesday

    Time Temperature Precipitation Wind Pressure Humidity
    00:00 +29°C° 0 mm 7 mps 752 mmHg 80%
    01:00 +29°C° 0 mm 7 mps 751 mmHg 80%
    02:00 +29°C° 0 mm 7 mps 751 mmHg 80%
    03:00 +29°C° 0 mm 7 mps 751 mmHg 81%
    04:00 +29°C° 0 mm 7 mps 751 mmHg 81%
    05:00 +29°C° 0 mm 7 mps 751 mmHg 82%
    06:00 +29°C° 0 mm 7 mps 751 mmHg 81%
    07:00 +29°C° 0 mm 7 mps 752 mmHg 80%
    08:00 +30°C° 0 mm 7 mps 752 mmHg 79%
    09:00 +30°C° 0 mm 7 mps 753 mmHg 78%
    10:00 +30°C° 0 mm 7 mps 753 mmHg 77%
    11:00 +32°C° 0 mm 7 mps 753 mmHg 75%
    12:00 +32°C° 0.1 mm 7 mps 752 mmHg 75%
    13:00 +32°C° 0.1 mm 7 mps 752 mmHg 75%
    14:00 +32°C° 0.1 mm 7 mps 751 mmHg 75%
    15:00 +30°C° 0.2 mm 7 mps 751 mmHg 76%
    16:00 +30°C° 0.2 mm 7 mps 751 mmHg 77%
    17:00 +30°C° 0.2 mm 7 mps 750 mmHg 79%
    18:00 +29°C° 0.1 mm 7 mps 751 mmHg 79%
    19:00 +29°C° 0.1 mm 7 mps 751 mmHg 79%
    20:00 +29°C° 0.1 mm 7 mps 752 mmHg 80%
    21:00 +29°C° 0 mm 7 mps 752 mmHg 79%
    22:00 +29°C° 0 mm 7 mps 752 mmHg 79%
    23:00 +29°C° 0 mm 7 mps 753 mmHg 79%

    29 August, Thursday

    Time Temperature Precipitation Wind Pressure Humidity
    00:00 +29°C° 0 mm 7 mps 752 mmHg 79%
    01:00 +29°C° 0 mm 7 mps 751 mmHg 80%
    02:00 +29°C° 0 mm 7 mps 751 mmHg 80%
    03:00 +29°C° 0 mm 7 mps 751 mmHg 80%
    04:00 +29°C° 0 mm 6 mps 751 mmHg 81%
    05:00 +29°C° 0 mm 6 mps 751 mmHg 81%
    06:00 +29°C° 0 mm 6 mps 751 mmHg 79%
    07:00 +29°C° 0 mm 6 mps 752 mmHg 77%
    08:00 +29°C° 0 mm 6 mps 752 mmHg 76%
    09:00 +30°C° 0 mm 6 mps 752 mmHg 75%
    10:00 +30°C° 0 mm 6 mps 753 mmHg 74%
    11:00 +30°C° 0 mm 6 mps 753 mmHg 73%
    12:00 +30°C° 0 mm 5 mps 752 mmHg 73%
    13:00 +30°C° 0 mm 5 mps 752 mmHg 73%
    14:00 +30°C° 0 mm 5 mps 751 mmHg 73%
    15:00 +30°C° 0 mm 5 mps 751 mmHg 74%
    16:00 +30°C° 0 mm 5 mps 750 mmHg 75%
    17:00 +29°C° 0 mm 6 mps 750 mmHg 77%
    18:00 +29°C° 0 mm 5 mps 750 mmHg 79%
    19:00 +28°C° 0 mm 5 mps 751 mmHg 81%
    20:00 +28°C° 0 mm 5 mps 751 mmHg 83%
    21:00 +28°C° 0 mm 5 mps 751 mmHg 83%
    22:00 +28°C° 0 mm 5 mps 752 mmHg 84%
    23:00 +28°C° 0 mm 5 mps 752 mmHg 84%

    30 August, Friday

    Time Temperature Precipitation Wind Pressure Humidity
    00:00 +28°C° 0.1 mm 5 mps 752 mmHg 84%
    01:00 +28°C° 0.1 mm 5 mps 751 mmHg 84%
    02:00 +28°C° 0.1 mm 5 mps 751 mmHg 84%
    03:00 +28°C° 0.1 mm 5 mps 751 mmHg 83%
    04:00 +28°C° 0.1 mm 5 mps 751 mmHg 82%
    05:00 +28°C° 0.1 mm 5 mps 751 mmHg 81%
    06:00 +28°C° 0.1 mm 5 mps 752 mmHg 80%
    07:00 +28°C° 0.1 mm 5 mps 752 mmHg 79%
    08:00 +29°C° 0.1 mm 5 mps 752 mmHg 78%
    09:00 +29°C° 0 mm 5 mps 753 mmHg 76%
    10:00 +30°C° 0 mm 5 mps 753 mmHg 73%
    11:00 +30°C° 0 mm 4 mps 753 mmHg 71%
    12:00 +30°C° 0 mm 4 mps 752 mmHg 70%
    13:00 +30°C° 0 mm 4 mps 752 mmHg 70%
    14:00 +32°C° 0 mm 4 mps 751 mmHg 69%
    15:00 +30°C° 0 mm 4 mps 751 mmHg 70%
    16:00 +30°C° 0 mm 4 mps 750 mmHg 71%
    17:00 +30°C° 0 mm 5 mps 750 mmHg 72%
    18:00 +29°C° 0 mm 5 mps 750 mmHg 74%
    19:00 +29°C° 0 mm 5 mps 751 mmHg 76%
    20:00 +28°C° 0 mm 5 mps 751 mmHg 78%
    21:00 +28°C° 0 mm 4 mps 751 mmHg 79%
    22:00 +28°C° 0 mm 4 mps 751 mmHg 79%
    23:00 +28°C° 0 mm 4 mps 752 mmHg 80%

    31 August, Saturday

    Time Temperature Precipitation Wind Pressure Humidity
    00:00 +28°C° 0 mm 4 mps 751 mmHg 81%
    01:00 +28°C° 0 mm 4 mps 751 mmHg 82%
    02:00 +28°C° 0 mm 4 mps 750 mmHg 83%
    03:00 +28°C° 0.1 mm 4 mps 750 mmHg 83%
    04:00 +28°C° 0.1 mm 4 mps 751 mmHg 83%
    05:00 +28°C° 0.1 mm 4 mps 751 mmHg 83%
    06:00 +28°C° 0.1 mm 4 mps 751 mmHg 81%
    07:00 +29°C° 0.1 mm 4 mps 752 mmHg 79%
    08:00 +29°C° 0.1 mm 4 mps 752 mmHg 77%
    09:00 +29°C° 0.1 mm 5 mps 752 mmHg 78%
    10:00 +29°C° 0.1 mm 5 mps 752 mmHg 79%
    11:00 +29°C° 0.1 mm 5 mps 752 mmHg 80%
    12:00 +30°C° 0.1 mm 5 mps 752 mmHg 77%
    13:00 +30°C° 0.1 mm 5 mps 751 mmHg 74%
    14:00 +30°C° 0.1 mm 5 mps 751 mmHg 71%
    15:00 +30°C° 0 mm 5 mps 750 mmHg 73%
    16:00 +30°C° 0 mm 6 mps 750 mmHg 74%
    17:00 +29°C° 0 mm 6 mps 750 mmHg 76%
    18:00 +29°C° 0 mm 6 mps 750 mmHg 77%
    19:00 +29°C° 0 mm 6 mps 751 mmHg 78%
    20:00 +29°C° 0 mm 6 mps 751 mmHg 80%
    21:00 +29°C° 0 mm 6 mps 751 mmHg 80%
    22:00 +29°C° 0 mm 6 mps 751 mmHg 80%
    23:00 +29°C° 0 mm 6 mps 751 mmHg 80%
    Show more